Simultaneous Nadir Overpasses (SNOs) Predictions

Prediction of SNOs between AQUA and METOP-B Satellite Orbit:

Table of predicted SNOs for the next 14.0 days since TLE Epoch: 7/1/2016
Index Date (AQUA) Time (AQUA) Lat,Lon (AQUA) SZA (AQUA ) Date (METOP-B) Time (METOP-B) Lat,Lon (METOP-B) SZA (METOP-B ) Distance(km) Time Diff (sec)
1 07/02/2016 07:09:52 73.26, 67.92 50.27 07/02/2016 07:08:44 73.20, 65.79 50.31 68.80 68
2 07/02/2016 07:59:27 -73.77,-125.51 129.19 07/02/2016 07:59:14 -73.77,-125.57 129.17 1.91 13
3 07/02/2016 08:48:56 73.83, 41.98 50.89 07/02/2016 08:49:53 73.83, 41.90 50.89 2.56 57
4 07/05/2016 02:44:14 73.66, 133.53 50.94 07/05/2016 02:43:01 73.62, 133.14 50.94 12.92 73
5 07/05/2016 03:33:42 -73.79, -59.12 128.91 07/05/2016 03:33:39 -73.80, -59.12 128.91 0.53 3
6 07/05/2016 04:23:11 73.86, 108.36 51.17 07/05/2016 04:24:18 73.85, 108.35 51.15 1.34 67
7 07/07/2016 22:18:30 73.74,-160.23 51.34 07/07/2016 22:17:24 73.73,-160.19 51.34 1.64 66
8 07/07/2016 23:07:57 -73.82, 7.25 128.58 07/07/2016 23:08:04 -73.81, 7.33 128.59 2.65 7
9 07/07/2016 23:57:28 74.00, 174.48 51.62 07/07/2016 23:58:40 74.01, 175.15 51.60 20.35 72
10 07/10/2016 17:52:43 73.73, -93.76 51.68 07/10/2016 17:51:48 73.74, -93.76 51.70 1.26 55
11 07/10/2016 18:42:10 -73.80, 73.72 128.24 07/10/2016 18:42:29 -73.78, 73.66 128.26 3.08 19
12 07/10/2016 19:31:50 74.45,-120.14 52.47 07/10/2016 19:32:56 74.42,-117.42 52.32 81.14 66
13 07/13/2016 13:26:57 73.73, -27.32 52.08 07/13/2016 13:26:13 73.75, -27.33 52.11 2.84 44
14 07/13/2016 14:16:24 -73.79, 140.19 127.85 07/13/2016 14:16:54 -73.80, 140.10 127.85 2.77 30




NCC Satellite Simultaneous Nadir Overpasses (SNOs) Prediction Service
